Location: Krakow
(50.0830°N, 19.9170°E)
Time: 21:30:19
(UTC+01:00)

Altair - Pass Details

Date: 08 December 2023
Orbit: 1501 x 1682 km, 47.2° (Epoch: 03 March)

Event Time Altitude Azimuth Distance (km) Brightness Sun altitude
Rises 08:55:18 0° 252° (WSW) 4,821 9.9 9.4°
Reaches altitude 10° 08:58:28 10° 251° (WSW) 3,812 9.5 9.7°
Maximum altitude 09:08:03 72° 169° (S) 1,621 8.1 10.5°
Drops below altitude 10° 09:17:18 10° 88° (E) 3,685 10.0 11.3°
Sets 09:20:18 0° 86° (E) 4,654 10.4 11.6°
